This is the latest recevied weather packets stored in our database for station/object CE4ERM-13. If no packets are shown the sender has not sent any weather packets the latest 10 day(s).
| Time | Temp. | Humidity | Pressure | Rain* | Wind** | Luminosity | Snow |
|---|---|---|---|---|---|---|---|
| 1777910265 | 28.33° C | 20% | 1017.5 hPa | - | - | - | - |
| 1777909064 | 28.89° C | 20% | 1017.3 hPa | - | - | - | - |
| 1777908463 | 27.78° C | 19% | 1018.4 hPa | - | - | - | - |
| 1777907863 | 27.22° C | 20% | 1017.8 hPa | - | - | - | - |
| 1777907262 | 27.22° C | 20% | 1018.8 hPa | - | - | - | - |
| 1777906662 | 27.22° C | 21% | 1018.4 hPa | - | - | - | - |
| 1777906136 | 26.11° C | 22% | 1017.1 hPa | - | - | - | - |
| 1777906062 | 26.11° C | 22% | 1017.1 hPa | - | - | - | - |
| 1777905461 | 26.11° C | 22% | 1017.9 hPa | - | - | - | - |
| 1777904395 | 24.44° C | 24% | 1018.1 hPa | - | - | - | - |
| 1777904259 | 24.44° C | 24% | 1018.1 hPa | - | - | - | - |
| 1777903187 | 23.89° C | 26% | 1018.9 hPa | - | - | - | - |
| 1777903058 | 23.89° C | 26% | 1018.9 hPa | - | - | - | - |
| 1777902583 | 23.89° C | 25% | 1017.9 hPa | - | - | - | - |
| 1777902458 | 23.89° C | 25% | 1017.9 hPa | - | - | - | - |
| 1777901857 | 23.33° C | 26% | 1018.4 hPa | - | - | - | - |
| 1777901257 | 23.33° C | 26% | 1018.5 hPa | - | - | - | - |
| 1777900657 | 22.78° C | 28% | 1018.9 hPa | - | - | - | - |
| 1777900455 | 21.67° C | 30% | 1019.3 hPa | - | - | - | - |
| 1777900057 | 21.67° C | 30% | 1019.3 hPa | - | - | - | - |
| 1777898854 | 21.67° C | 29% | 1017.9 hPa | - | - | - | - |
| 1777898255 | 21.67° C | 30% | 1018 hPa | - | - | - | - |
| 1777897849 | 21.11° C | 32% | 1020 hPa | - | - | - | - |
| 1777897654 | 21.11° C | 32% | 1020 hPa | - | - | - | - |
| 1777897226 | 17.22° C | 43% | 1019.5 hPa | - | - | - | - |
* Rain since midnight (hover to see other rain measurements)
** Current wind speed in m/s (hover to see current wind gust speed)